EN

Hourly Weather Acazulco

Today, 28 November, Saturday

Time Temperature Precipitation Wind Pressure Humidity
00:00 +9°C° 0 mm 0 mps 541 mmHg 47%
01:00 +9°C° 0 mm 0 mps 541 mmHg 46%
02:00 +9°C° 0 mm 0 mps 541 mmHg 46%
03:00 +8°C° 0 mm 0 mps 541 mmHg 46%
04:00 +8°C° 0 mm 0 mps 541 mmHg 46%
05:00 +8°C° 0 mm 0 mps 541 mmHg 46%
06:00 +10°C° 0 mm 0 mps 542 mmHg 42%
07:00 +12°C° 0 mm 0 mps 544 mmHg 39%
08:00 +14°C° 0 mm 0 mps 545 mmHg 35%
09:00 +16°C° 0 mm 0 mps 546 mmHg 32%
10:00 +20°C° 0 mm 1 mps 546 mmHg 28%
11:00 +22°C° 0 mm 1 mps 547 mmHg 24%
12:00 +22°C° 0 mm 1 mps 546 mmHg 25%
13:00 +22°C° 0 mm 1 mps 546 mmHg 25%
14:00 +22°C° 0 mm 1 mps 545 mmHg 25%
15:00 +20°C° 0 mm 1 mps 544 mmHg 34%
16:00 +18°C° 0 mm 1 mps 543 mmHg 43%
17:00 +15°C° 0 mm 1 mps 542 mmHg 52%
18:00 +14°C° 0 mm 1 mps 542 mmHg 57%
19:00 +12°C° 0 mm 0 mps 542 mmHg 62%
20:00 +11°C° 0 mm 0 mps 542 mmHg 67%
21:00 +11°C° 0 mm 0 mps 542 mmHg 66%
22:00 +10°C° 0 mm 0 mps 542 mmHg 64%
23:00 +10°C° 0 mm 0 mps 542 mmHg 62%

Tomorrow, 29 November, Sunday

Time Temperature Precipitation Wind Pressure Humidity
00:00 +11°C° 0 mm 1 mps 541 mmHg 60%
01:00 +10°C° 0 mm 1 mps 541 mmHg 58%
02:00 +10°C° 0 mm 1 mps 540 mmHg 56%
03:00 +10°C° 0 mm 1 mps 540 mmHg 56%
04:00 +9°C° 0 mm 1 mps 540 mmHg 56%
05:00 +9°C° 0 mm 1 mps 540 mmHg 56%
06:00 +10°C° 0 mm 0 mps 542 mmHg 53%
07:00 +12°C° 0 mm 0 mps 543 mmHg 49%
08:00 +14°C° 0 mm 0 mps 544 mmHg 45%
09:00 +18°C° 0 mm 1 mps 545 mmHg 40%
10:00 +20°C° 0 mm 1 mps 546 mmHg 34%
11:00 +22°C° 0 mm 1 mps 547 mmHg 29%
12:00 +22°C° 0 mm 1 mps 546 mmHg 30%
13:00 +22°C° 0 mm 1 mps 546 mmHg 30%
14:00 +21°C° 0 mm 2 mps 545 mmHg 31%
15:00 +20°C° 0.1 mm 1 mps 544 mmHg 42%
16:00 +18°C° 0.1 mm 1 mps 544 mmHg 53%
17:00 +15°C° 0.1 mm 1 mps 543 mmHg 64%
18:00 +14°C° 0.2 mm 1 mps 543 mmHg 66%
19:00 +14°C° 0.2 mm 1 mps 544 mmHg 68%
20:00 +13°C° 0.2 mm 1 mps 544 mmHg 70%
21:00 +13°C° 0.1 mm 1 mps 544 mmHg 73%
22:00 +12°C° 0.1 mm 1 mps 543 mmHg 76%
23:00 +11°C° 0.1 mm 1 mps 543 mmHg 79%

Day after tomorrow, 30 November, Monday

Time Temperature Precipitation Wind Pressure Humidity
00:00 +11°C° 0.1 mm 1 mps 543 mmHg 81%
01:00 +11°C° 0.1 mm 1 mps 542 mmHg 84%
02:00 +10°C° 0.1 mm 1 mps 542 mmHg 87%
03:00 +10°C° 0.1 mm 1 mps 542 mmHg 88%
04:00 +10°C° 0.1 mm 1 mps 542 mmHg 89%
05:00 +9°C° 0.1 mm 1 mps 542 mmHg 91%
06:00 +10°C° 0 mm 1 mps 543 mmHg 87%
07:00 +11°C° 0 mm 1 mps 544 mmHg 83%
08:00 +12°C° 0 mm 1 mps 544 mmHg 80%
09:00 +13°C° 0.1 mm 1 mps 545 mmHg 76%
10:00 +14°C° 0.1 mm 1 mps 545 mmHg 73%
11:00 +15°C° 0.1 mm 1 mps 545 mmHg 69%
12:00 +15°C° 0.2 mm 2 mps 544 mmHg 69%
13:00 +15°C° 0.2 mm 2 mps 544 mmHg 68%
14:00 +15°C° 0.2 mm 2 mps 543 mmHg 67%
15:00 +14°C° 0.2 mm 2 mps 543 mmHg 72%
16:00 +13°C° 0.2 mm 2 mps 543 mmHg 76%
17:00 +12°C° 0.2 mm 2 mps 542 mmHg 81%
18:00 +11°C° 0.1 mm 1 mps 542 mmHg 83%
19:00 +11°C° 0.1 mm 1 mps 542 mmHg 84%
20:00 +10°C° 0.1 mm 1 mps 543 mmHg 86%
21:00 +10°C° 0 mm 1 mps 542 mmHg 87%
22:00 +9°C° 0 mm 1 mps 542 mmHg 89%
23:00 +9°C° 0 mm 1 mps 542 mmHg 90%

1 December, Tuesday

Time Temperature Precipitation Wind Pressure Humidity
00:00 +9°C° 0 mm 1 mps 542 mmHg 91%
01:00 +9°C° 0 mm 1 mps 541 mmHg 92%
02:00 +8°C° 0 mm 1 mps 541 mmHg 92%
03:00 +8°C° 0 mm 1 mps 541 mmHg 92%
04:00 +8°C° 0 mm 1 mps 541 mmHg 91%
05:00 +8°C° 0 mm 1 mps 541 mmHg 91%
06:00 +9°C° 0 mm 1 mps 542 mmHg 86%
07:00 +10°C° 0 mm 1 mps 543 mmHg 82%
08:00 +11°C° 0 mm 1 mps 543 mmHg 77%
09:00 +13°C° 0 mm 1 mps 544 mmHg 68%
10:00 +15°C° 0 mm 2 mps 544 mmHg 59%
11:00 +16°C° 0 mm 2 mps 545 mmHg 51%
12:00 +16°C° 0 mm 2 mps 544 mmHg 50%
13:00 +17°C° 0 mm 3 mps 543 mmHg 50%
14:00 +17°C° 0 mm 3 mps 543 mmHg 50%
15:00 +14°C° 0 mm 3 mps 542 mmHg 58%
16:00 +13°C° 0 mm 2 mps 541 mmHg 66%
17:00 +12°C° 0 mm 2 mps 541 mmHg 74%
18:00 +10°C° 0 mm 2 mps 541 mmHg 78%
19:00 +9°C° 0 mm 2 mps 540 mmHg 82%
20:00 +9°C° 0 mm 1 mps 540 mmHg 86%
21:00 +9°C° 0 mm 1 mps 540 mmHg 85%
22:00 +8°C° 0 mm 1 mps 540 mmHg 84%
23:00 +8°C° 0 mm 1 mps 540 mmHg 84%

2 December, Wednesday

Time Temperature Precipitation Wind Pressure Humidity
00:00 +7°C° 0 mm 1 mps 539 mmHg 83%
01:00 +7°C° 0 mm 1 mps 539 mmHg 82%
02:00 +7°C° 0 mm 1 mps 539 mmHg 81%
03:00 +6°C° 0 mm 1 mps 539 mmHg 78%
04:00 +6°C° 0 mm 1 mps 539 mmHg 75%
05:00 +6°C° 0 mm 1 mps 539 mmHg 72%
06:00 +8°C° 0 mm 1 mps 540 mmHg 64%
07:00 +9°C° 0 mm 1 mps 541 mmHg 57%
08:00 +11°C° 0 mm 1 mps 543 mmHg 50%
09:00 +13°C° 0 mm 1 mps 543 mmHg 43%
10:00 +15°C° 0 mm 1 mps 544 mmHg 37%
11:00 +18°C° 0 mm 1 mps 545 mmHg 30%
12:00 +17°C° 0 mm 2 mps 544 mmHg 31%
13:00 +17°C° 0 mm 2 mps 544 mmHg 32%
14:00 +17°C° 0 mm 3 mps 543 mmHg 34%
15:00 +15°C° 0 mm 2 mps 542 mmHg 42%
16:00 +13°C° 0 mm 2 mps 542 mmHg 51%
17:00 +11°C° 0 mm 1 mps 541 mmHg 60%
18:00 +10°C° 0 mm 1 mps 541 mmHg 62%
19:00 +9°C° 0 mm 1 mps 541 mmHg 64%
20:00 +9°C° 0 mm 1 mps 541 mmHg 66%
21:00 +8°C° 0 mm 1 mps 541 mmHg 65%
22:00 +8°C° 0 mm 1 mps 540 mmHg 64%
23:00 +8°C° 0 mm 1 mps 540 mmHg 63%

3 December, Thursday

Time Temperature Precipitation Wind Pressure Humidity
00:00 +7°C° 0 mm 1 mps 540 mmHg 63%
01:00 +7°C° 0 mm 1 mps 540 mmHg 62%
02:00 +7°C° 0 mm 1 mps 539 mmHg 62%
03:00 +7°C° 0 mm 1 mps 539 mmHg 62%
04:00 +6°C° 0 mm 1 mps 539 mmHg 62%
05:00 +6°C° 0 mm 1 mps 539 mmHg 63%
06:00 +8°C° 0 mm 1 mps 541 mmHg 56%
07:00 +10°C° 0 mm 1 mps 542 mmHg 49%
08:00 +12°C° 0 mm 1 mps 544 mmHg 42%
09:00 +14°C° 0 mm 1 mps 544 mmHg 37%
10:00 +15°C° 0 mm 1 mps 545 mmHg 32%
11:00 +17°C° 0 mm 2 mps 545 mmHg 27%
12:00 +17°C° 0 mm 2 mps 545 mmHg 28%
13:00 +17°C° 0 mm 2 mps 544 mmHg 29%
14:00 +17°C° 0 mm 3 mps 544 mmHg 30%
15:00 +15°C° 0 mm 2 mps 543 mmHg 38%
16:00 +13°C° 0 mm 2 mps 542 mmHg 46%
17:00 +10°C° 0 mm 2 mps 541 mmHg 54%
18:00 +9°C° 0 mm 2 mps 541 mmHg 57%
19:00 +9°C° 0 mm 1 mps 541 mmHg 61%
20:00 +9°C° 0 mm 1 mps 541 mmHg 64%
21:00 +8°C° 0 mm 1 mps 541 mmHg 61%
22:00 +8°C° 0 mm 1 mps 541 mmHg 59%
23:00 +7°C° 0 mm 1 mps 540 mmHg 56%
Show more